Ephrata, WA
on Tuesday, November 13, 2012

Tuesday
Previous Day Next Day
Daily Summary
 ActualAverageRecord
Temperature
Mean Temperature °F 38°F  
Max Temperature 35°F 46°F 61°F (1998)
Min Temperature 32°F 30°F 4°F (1955)
Degree Days
Heating Degree Days 31 27  
Month to date heating degree days 298 318  
Since 1 July heating degree days 793 899  
Cooling Degree Days 0 0  
Month to date cooling degree days 0 0  
Year to date cooling degree days 837 772  
Moisture
Dew Point 32°F   
Average Humidity 89    
Maximum Humidity 96    
Minimum Humidity 82    
Precipitation
Precipitation 0.00 in 0.04 in 0.50 in (1966)
Month to date precipitation 0.55 0.42  
Year to date precipitation 6.41 5.97  
Wind
Wind Speed 1 mph   
Max Wind Speed 6 mph   
Max Gust Speed 7 mph   
Visibility 7 miles   
Events Fog   

Key: T is trace of precipitation, MM is missing value
Source: NWS Daily Summary
Time(PST)TemperatureDew PointHumidity Pressure Visibility Wind DirectionWind SpeedGust SpeedPrecipitationEvents Conditions
12:53 AM 34.0°F 30.9°F 89% 30.30 in 10.0 miles Calm Calm - N/A   Overcast
1:53 AM 33.1°F 30.9°F 92% 30.31 in 10.0 miles Calm Calm - N/A   Overcast
2:53 AM 34.0°F 30.9°F 89% 30.30 in 10.0 miles Calm Calm - N/A   Overcast
3:53 AM 33.1°F 30.9°F 92% 30.30 in 10.0 miles Calm Calm - N/A   Overcast
4:53 AM 33.1°F 30.9°F 92% 30.29 in 9.0 miles Calm Calm - N/A   Overcast
5:53 AM 32.0°F 30.9°F 96% 30.29 in 7.0 miles Calm Calm - N/A   Overcast
6:53 AM 33.1°F 30.9°F 92% 30.30 in 7.0 miles Calm Calm - N/A   Overcast
7:38 AM 33.8°F 32.0°F 93% 30.26 in 2.5 miles Calm Calm - N/A   Overcast
7:53 AM 33.1°F 32.0°F 96% 30.30 in 2.5 miles Calm Calm - N/A   Overcast
8:03 AM 33.8°F 32.0°F 93% 30.26 in 3.0 miles Calm Calm - N/A   Overcast
8:53 AM 33.1°F 32.0°F 96% 30.29 in 4.0 miles North 4.6 mph - N/A   Overcast
9:00 AM 33.8°F 32.0°F 93% 30.25 in 3.0 miles North 4.6 mph - N/A   Overcast
9:29 AM 33.8°F 32.0°F 93% 30.26 in 1.8 miles NNE 3.5 mph - N/A   Overcast
9:43 AM 33.8°F 32.0°F 93% 30.25 in 0.5 miles NE 4.6 mph - N/A Fog Fog
9:53 AM 33.1°F 32.0°F 96% 30.30 in 1.0 miles Calm Calm - N/A   Overcast
10:00 AM 33.8°F 32.0°F 93% 30.26 in 1.8 miles Calm Calm - N/A   Overcast
10:02 AM 33.8°F 32.0°F 93% 30.26 in 2.0 miles Calm Calm - N/A   Overcast
10:14 AM 33.8°F 32.0°F 93% 30.26 in 4.0 miles Calm Calm - N/A   Overcast
10:50 AM 35.6°F 32.0°F 87% 30.25 in 6.0 miles Calm Calm - N/A   Overcast
10:53 AM 35.1°F 32.0°F 89% 30.29 in 7.0 miles Calm Calm - N/A   Overcast
11:49 AM 35.6°F 30.2°F 81% 30.23 in 10.0 miles Calm Calm - N/A   Overcast
11:53 AM 35.1°F 30.9°F 85% 30.26 in 10.0 miles Calm Calm - N/A   Overcast
12:53 PM 35.1°F 30.9°F 85% 30.25 in 10.0 miles Calm Calm - N/A   Overcast
1:53 PM 35.1°F 32.0°F 89% 30.24 in 10.0 miles Calm Calm - N/A   Overcast
2:30 PM 35.6°F 32.0°F 87% 30.19 in 10.0 miles Calm Calm - N/A   Overcast
2:53 PM 35.1°F 32.0°F 89% 30.23 in 10.0 miles Calm Calm - N/A   Overcast
3:53 PM 34.0°F 32.0°F 92% 30.23 in 10.0 miles Calm Calm - N/A   Overcast
4:07 PM 33.8°F 32.0°F 93% 30.19 in 10.0 miles Calm Calm - N/A   Overcast
4:43 PM 33.8°F 32.0°F 93% 30.18 in 10.0 miles Calm Calm - N/A   Overcast
4:53 PM 34.0°F 32.0°F 92% 30.22 in 10.0 miles Calm Calm - N/A   Overcast
5:10 PM 33.8°F 32.0°F 93% 30.18 in 10.0 miles Calm Calm - N/A   Overcast
5:38 PM 33.8°F 32.0°F 93% 30.18 in 10.0 miles Calm Calm - N/A   Overcast
5:53 PM 34.0°F 30.9°F 89% 30.22 in 10.0 miles ESE 3.5 mph - N/A   Overcast
6:53 PM 34.0°F 32.0°F 92% 30.22 in 9.0 miles Calm Calm - N/A   Overcast
7:53 PM 33.1°F 32.0°F 96% 30.23 in 6.0 miles SSW 4.6 mph - N/A   Overcast
8:05 PM 33.8°F 32.0°F 93% 30.18 in 5.0 miles SSW 3.5 mph - N/A   Overcast
8:28 PM 33.8°F 32.0°F 93% 30.18 in 5.0 miles Calm Calm - N/A   Overcast
8:53 PM 33.1°F 32.0°F 96% 30.22 in 6.0 miles South 3.5 mph - N/A   Overcast
9:41 PM 33.8°F 32.0°F 93% 30.18 in 7.0 miles Calm Calm - N/A   Overcast
9:53 PM 33.1°F 32.0°F 96% 30.22 in 6.0 miles Calm Calm - N/A   Overcast
10:53 PM 34.0°F 32.0°F 92% 30.22 in 6.0 miles Calm Calm - N/A   Overcast
11:53 PM 34.0°F 32.0°F 92% 30.22 in 10.0 miles WSW 3.5 mph - N/A   Overcast
Moon Phase
Nov. 13 Nov. 13 Nov. 20 Nov. 28 Dec. 06
Sunrise:07:00 AM (PST) Moon Rise:06:45 AM (PST)11/13
Sunset:04:24 PM (PST) Moon Set:04:19 PM (PST)11/13

Copyright © 2014 The Weather Underground, Inc.